[[{"header":{"parameterUnit":"m.s-1","parameterCategory":1,"la1":30.2991,"la2":30.254,"lo1":-89.0895,"lo2":-89.0444,"dy":0.0017,"dx":0.0017,"nx":28,"ny":28,"refTime":"2023-06-25T21:00:00:Z","depth":0,"parameterNumber":2,"parameterNumberName":"U-component_of_WINDS"},"data":[0,0,0,0,0,0,0,0,0,0,0,0,0,0,0,0,0,0,0,0,0,0,0,0,0,0,0,0,0,0,0,0,0,0,0,0,0,0,0,0,0,0,0,0,0,0,0,0,0,0,0,0,0,0,0,0,0,0,5.4564,5.4566,0,5.4702,5.4704,5.4706,5.4648,5.4645,5.4642,5.4639,5.4784,5.4791,5.4798,0,0,0,0,0,0,0,0,0,0,0,0,0,5.4253,5.4259,5.4564,5.4566,5.4567,5.4702,5.4704,5.4706,5.4649,5.4645,5.4641,5.4637,5.4782,5.479,5.4798,0,0,0,0,0,0,0,0,0,0,0,0,0,5.439,5.4261,5.4564,5.4555,5.4556,5.4702,5.4704,5.4706,5.465,5.4645,5.464,5.4635,5.4779,5.4789,5.48,5.4963,0,0,5.4831,5.4836,0,0,0,0,0,0,0,0,5.4382,5.4401,5.4555,5.4556,5.4557,5.4653,5.4648,5.4793,5.4651,5.4614,5.4639,5.4633,5.4745,5.4758,5.4795,5.497,5.4976,5.4832,5.4839,5.4843,5.4846,0,0,0,0,0,0,0,5.4373,5.4395,5.4619,5.4557,5.4558,5.4545,5.4559,5.4675,5.4706,5.4617,5.4613,5.463,5.4744,5.4785,5.4798,5.4978,5.4832,5.4841,5.4848,5.4852,5.5294,5.53,0,0,0,0,0,0,5.4363,5.4388,5.4614,5.4623,5.4455,5.4555,5.4571,5.4627,5.4704,5.4711,5.4634,5.4627,5.4769,5.4786,5.4803,5.4998,5.4843,5.4853,5.4859,5.5289,5.5296,5.5301,0,0,0,0,0,0,5.4356,5.4384,5.4609,5.4504,5.4532,5.4566,5.463,5.4633,5.4673,5.4717,5.4723,5.467,5.4766,5.4788,5.4923,5.5003,5.4858,5.4867,5.5282,5.5291,5.5298,5.5392,0,0,0,0,0,0,5.4348,5.4382,5.4443,5.4506,5.4538,5.4727,5.4635,5.4639,5.469,5.4682,5.4752,5.4759,5.4764,5.4908,5.4934,5.5014,5.4875,5.5275,5.5286,5.5296,5.5382,5.5403,5.542,0,0,0,0,0,5.4337,5.4465,5.4447,5.4475,5.4616,5.4731,5.475,5.4752,5.4697,5.476,5.4788,5.4757,5.499,5.4922,5.4951,5.5036,5.527,5.5283,5.5295,5.5374,5.5399,5.542,0,0,0,0,0,0,5.4413,5.4473,5.4454,5.4606,5.4664,5.4721,5.4801,5.4778,5.4854,5.4843,5.4844,5.486,5.5,5.5031,5.4955,5.5198,5.5122,5.5141,5.5172,5.5196,5.5215,5.5204,5.4884,0,0,0,0,0,5.4447,5.4535,5.4583,5.4713,5.4743,5.4767,5.4818,5.4814,5.4875,5.4899,5.4937,5.4998,5.5085,5.5142,5.5225,5.5387,5.5401,5.5459,5.5478,5.5493,5.5509,5.5596,5.5623,5.5342,5.5342,5.5342,0,0,5.4519,5.4563,5.4619,5.473,5.4774,5.4865,5.4788,5.4889,5.4957,5.4915,5.5044,5.5075,5.5143,5.5291,5.5359,5.5322,5.559,5.5509,5.5521,5.5529,5.5612,5.5638,5.5662,5.535,5.5349,5.5348,0,0,5.4697,5.4739,5.4851,5.4897,5.4964,5.4979,5.5007,5.5068,5.5086,5.5216,5.5186,5.5267,5.5417,5.5466,5.5511,5.5707,5.568,5.5734,5.5833,5.5918,5.594,5.596,5.6029,5.6054,5.575,5.575,5.5751,0,5.4778,5.4914,5.4912,5.5015,5.5064,5.5029,5.5143,5.5188,5.528,5.5315,5.5273,5.5459,5.5503,5.5662,5.571,5.5747,5.5778,5.5726,5.5937,5.5957,5.5975,5.6041,5.6067,5.5756,5.5756,5.5755,5.5755,0,5.501,5.5105,5.5188,5.5275,5.5334,5.5443,5.5458,5.5518,5.551,5.5529,5.5662,5.5713,5.5804,5.5842,5.5836,5.6001,5.5976,5.5935,5.5859,5.6008,5.607,5.6095,5.5765,5.5763,5.5761,5.576,0,0,5.524,5.5324,5.5355,5.5394,5.5465,5.5539,5.5646,5.5734,5.5785,5.585,5.5939,5.6066,5.6029,5.608,5.6078,5.6153,5.6304,5.6103,5.6105,5.6138,5.6488,5.6518,5.6547,5.6287,5.6292,5.6296,5.6482,0,5.5423,5.5608,5.5609,5.578,5.5867,5.5835,5.5927,5.5982,5.6003,5.6081,5.6105,5.6195,5.6139,5.6169,5.6242,5.627,5.6374,5.6257,5.637,5.6374,5.6353,5.6579,5.6611,5.6785,5.6507,5.6511,5.6514,0,5.5661,5.5731,5.591,5.5968,5.6004,5.6088,5.6168,5.6243,5.6304,5.6314,5.6371,5.6358,5.6467,5.6387,5.6537,5.6458,5.6504,5.6525,5.6532,5.6542,5.6452,5.6595,5.6841,5.6866,5.6552,5.6549,5.6546,0,5.5809,5.5949,5.6074,5.6108,5.6179,5.6238,5.6271,5.6327,5.638,5.6451,5.6485,5.6568,5.6614,5.6679,5.6689,5.663,5.684,5.6761,5.6851,5.6851,5.6896,5.6893,5.7152,5.6928,5.6928,5.6927,5.6927,0,5.6013,5.6123,5.6141,5.6218,5.6341,5.6342,5.6464,5.6492,5.6542,5.6624,5.6602,5.668,5.6688,5.6769,5.6778,5.69,5.6922,5.6933,5.6934,5.6935,5.6933,5.6965,5.6953,5.6934,5.6933,5.6931,5.693,0,5.6199,5.6216,5.6349,5.6405,5.6422,5.651,5.6558,5.6632,5.665,5.6754,5.6779,5.6809,5.6902,5.6919,5.703,5.7035,5.7181,5.7171,5.716,5.7159,5.7247,5.7238,5.7535,5.7573,5.7325,5.7327,5.7329,0,5.6328,5.6412,5.6476,5.6528,5.6564,5.6649,5.6702,5.6707,5.6763,5.6838,5.6903,5.6994,5.7066,5.7217,5.725,5.7334,5.7324,5.7422,5.7337,5.7335,5.7325,5.7319,5.7327,5.7439,5.7441,5.7444,5.7445,0,5.6554,5.6557,5.6634,5.6714,5.6777,5.6841,5.6901,5.6945,5.6958,5.7022,5.7117,5.7173,5.7285,5.7375,5.7459,5.7493,5.7472,5.7472,5.7497,5.7498,5.7488,5.7494,5.7204,5.7465,5.7463,5.7462,5.7461,5.746,5.6715,5.6787,5.6843,5.6929,5.6975,5.7031,5.7102,5.7129,5.7208,5.7298,5.7296,5.74,5.7458,5.7568,5.7608,5.7689,5.7658,5.7695,5.7704,5.7713,5.772,5.7476,5.7705,5.7704,5.7704,5.7703,5.7703,0,5.6939,5.6973,5.7052,5.7135,5.7203,5.7176,5.724,5.7299,5.739,5.7446,5.7517,5.7625,5.7712,5.7751,5.7837,5.7895,5.7887,5.7917,5.7912,5.792,5.7744,5.7713,5.7922,5.7922,5.7922,5.7922,5.7922,5.7921,5.7063,5.7184,5.7194,5.7338,5.7371,5.7471,5.751,5.7562,5.7606,5.7728,5.7799,5.7823,5.7872,5.7961,5.804,5.8049,5.8082,5.8116,5.8121,5.7955,5.7933,5.7912,5.7883,5.8124,5.8124,5.8291,5.8292,5.8293]},{"header":{"parameterUnit":"m.s-1","parameterCategory":1,"la1":30.2991,"la2":30.254,"lo1":-89.0895,"lo2":-89.0444,"dy":0.0017,"dx":0.0017,"nx":28,"ny":28,"refTime":"2023-06-25T21:00:00:Z","depth":0,"parameterNumber":3,"parameterNumberName":"V-component_of_WINDS"},"data":[0,0,0,0,0,0,0,0,0,0,0,0,0,0,0,0,0,0,0,0,0,0,0,0,0,0,0,0,0,0,0,0,0,0,0,0,0,0,0,0,0,0,0,0,0,0,0,0,0,0,0,0,0,0,0,0,0,0,1.7973,1.7973,0,1.8009,1.801,1.801,1.7983,1.7982,1.7981,1.798,1.8016,1.8018,1.802,0,0,0,0,0,0,0,0,0,0,0,0,0,1.788,1.7882,1.7973,1.7973,1.7974,1.8009,1.801,1.801,1.7984,1.7982,1.7981,1.7979,1.8016,1.8018,1.8021,0,0,0,0,0,0,0,0,0,0,0,0,0,1.7919,1.7882,1.7973,1.7965,1.7965,1.8009,1.801,1.801,1.7984,1.7982,1.798,1.7979,1.8015,1.8018,1.8021,1.8075,0,0,1.803,1.8032,0,0,0,0,0,0,0,0,1.7916,1.7922,1.7966,1.7966,1.7965,1.799,1.799,1.8032,1.7984,1.7977,1.798,1.7978,1.8009,1.8012,1.8023,1.8077,1.8078,1.8031,1.8033,1.8034,1.8035,0,0,0,0,0,0,0,1.7914,1.792,1.7987,1.7966,1.7966,1.7959,1.7963,1.7998,1.8002,1.7977,1.7975,1.798,1.8009,1.802,1.8024,1.8079,1.8031,1.8033,1.8035,1.8036,1.8178,1.818,0,0,0,0,0,0,1.7912,1.7918,1.7986,1.7988,1.7936,1.7962,1.7966,1.7984,1.8002,1.8003,1.7981,1.7979,1.8016,1.802,1.8025,1.8089,1.8034,1.8037,1.8039,1.8176,1.8178,1.818,0,0,0,0,0,0,1.791,1.7918,1.7985,1.7953,1.7961,1.7966,1.7986,1.7985,1.7997,1.8005,1.8005,1.7993,1.8015,1.8021,1.8063,1.809,1.8038,1.8041,1.8174,1.8177,1.8179,1.8218,0,0,0,0,0,0,1.7907,1.7918,1.7939,1.7954,1.7963,1.8022,1.7987,1.7987,1.8003,1.7999,1.8016,1.8017,1.8014,1.8058,1.8066,1.8093,1.8043,1.8171,1.8175,1.8178,1.8215,1.8222,1.8229,0,0,0,0,0,1.7904,1.7948,1.794,1.7948,1.7989,1.8024,1.8029,1.8025,1.8005,1.8026,1.8031,1.8016,1.8086,1.8063,1.8071,1.81,1.817,1.8174,1.8178,1.8211,1.8221,1.8228,0,0,0,0,0,0,1.7936,1.795,1.7941,1.7991,1.8007,1.8019,1.8046,1.8035,1.8056,1.8052,1.8046,1.805,1.8094,1.8101,1.8075,1.8153,1.8124,1.8131,1.8147,1.8156,1.8162,1.816,1.8046,0,0,0,0,0,1.7949,1.7977,1.7987,1.8031,1.8039,1.8041,1.8056,1.8052,1.8067,1.8074,1.8082,1.8097,1.8122,1.8139,1.8163,1.8215,1.8218,1.8239,1.8246,1.8252,1.8257,1.8285,1.8294,1.8194,1.8194,1.8194,0,0,1.7976,1.7987,1.8005,1.8037,1.8049,1.8077,1.8047,1.8078,1.8099,1.8078,1.8119,1.8125,1.8142,1.8189,1.821,1.8196,1.8285,1.8257,1.8262,1.8264,1.829,1.83,1.8308,1.8197,1.8197,1.8196,0,0,1.804,1.8051,1.8089,1.8101,1.8118,1.8119,1.8128,1.8143,1.8146,1.8186,1.8171,1.8196,1.8239,1.8252,1.8264,1.8332,1.8319,1.834,1.8376,1.8403,1.8411,1.8418,1.8442,1.8451,1.8345,1.8345,1.8345,0,1.8072,1.8114,1.8109,1.8142,1.8156,1.8138,1.8175,1.8187,1.8212,1.8222,1.8206,1.826,1.827,1.832,1.8336,1.8347,1.8356,1.8338,1.841,1.8417,1.8424,1.8446,1.8456,1.8347,1.8347,1.8347,1.8347,0,1.8152,1.8182,1.8209,1.8234,1.8251,1.8286,1.8285,1.8303,1.8297,1.8299,1.834,1.8352,1.8377,1.8388,1.8383,1.8437,1.8428,1.8411,1.8383,1.8436,1.8457,1.8466,1.8351,1.835,1.8349,1.8349,0,0,1.8238,1.8258,1.8268,1.8279,1.8297,1.832,1.8353,1.8378,1.8394,1.8411,1.8439,1.8476,1.846,1.8474,1.8469,1.8493,1.8545,1.8473,1.8473,1.8486,1.8606,1.8618,1.8629,1.8537,1.8538,1.854,1.8604,0,1.8302,1.8362,1.8357,1.8413,1.844,1.8423,1.8452,1.8466,1.8469,1.8492,1.8495,1.8522,1.8499,1.8507,1.853,1.8534,1.8569,1.8529,1.8562,1.8563,1.8559,1.864,1.8653,1.8714,1.8613,1.8614,1.8615,0,1.8386,1.8406,1.8465,1.8478,1.8489,1.8516,1.8538,1.856,1.8575,1.8576,1.8591,1.8582,1.8615,1.8585,1.8631,1.8604,1.8616,1.862,1.8623,1.8626,1.8593,1.8645,1.8733,1.8742,1.8628,1.8627,1.8626,0,1.8443,1.8485,1.8525,1.8534,1.8551,1.857,1.8578,1.8591,1.8606,1.8625,1.8635,1.8658,1.867,1.8688,1.8685,1.8663,1.8731,1.8701,1.8732,1.8732,1.8747,1.8747,1.8839,1.8756,1.8755,1.8755,1.8755,0,1.8516,1.8552,1.855,1.8575,1.8615,1.8609,1.8649,1.8654,1.8666,1.8691,1.8678,1.8701,1.8696,1.8719,1.8717,1.8755,1.8761,1.8762,1.8761,1.8763,1.8763,1.8772,1.8768,1.8758,1.8757,1.8757,1.8756,0,1.8586,1.8586,1.8629,1.8641,1.8645,1.8674,1.8684,1.8707,1.8709,1.8741,1.8748,1.875,1.8777,1.8776,1.8806,1.8804,1.8851,1.8845,1.8846,1.8845,1.8876,1.8873,1.8977,1.899,1.8899,1.8899,1.89,0,1.8633,1.866,1.8675,1.8691,1.87,1.8726,1.8741,1.8737,1.8753,1.8772,1.8793,1.8818,1.8838,1.8882,1.8886,1.8909,1.8903,1.8938,1.8907,1.8908,1.8904,1.8902,1.8905,1.8944,1.8945,1.8946,1.8947,0,1.8715,1.8714,1.8737,1.876,1.8779,1.8796,1.8812,1.8826,1.8823,1.8842,1.8869,1.8885,1.8916,1.8941,1.8963,1.897,1.8958,1.8957,1.8965,1.8968,1.8967,1.8968,1.8863,1.8955,1.8954,1.8953,1.8953,1.8953,1.8775,1.8798,1.8813,1.8839,1.885,1.8866,1.8888,1.8892,1.8915,1.894,1.8935,1.8966,1.8979,1.9007,1.9017,1.904,1.9027,1.904,1.9043,1.9046,1.9049,1.8964,1.9044,1.9044,1.9043,1.9043,1.9043,0,1.8857,1.8865,1.8889,1.8912,1.8932,1.8919,1.8936,1.8954,1.8981,1.8995,1.9015,1.9046,1.907,1.9076,1.9099,1.9117,1.9112,1.9123,1.9122,1.9124,1.9059,1.905,1.9127,1.9127,1.9127,1.9127,1.9127,1.9127,1.8902,1.8941,1.8941,1.8986,1.8993,1.9024,1.9034,1.9048,1.9059,1.9095,1.9115,1.9119,1.9129,1.9153,1.9174,1.9175,1.9184,1.9198,1.9197,1.9137,1.9128,1.912,1.9111,1.92,1.92,1.9259,1.926,1.926]}]]